Port Heiden, AK

5:28 PM AKDT on April 19, 2018 (GMT -0800)
Port Heiden

Weather History for PAPH - June, 2013

Change the Weather History Date:

Wednesday, June 26, 2013

  Actual Average Record
Temperature  
Mean Temperature 44 °F -  
Max Temperature 46 °F 53 °F 66 °F (2005)
Min Temperature 41 °F 43 °F 35 °F (2006)
Degree Days  
Heating Degree Days 22    
Moisture  
Dew Point 37 °F    
Average Humidity 81    
Maximum Humidity 87    
Minimum Humidity 67    
Precipitation  
Precipitation 0.00 in - - ()
Sea Level Pressure  
Sea Level Pressure 29.96 in    
Wind  
Wind Speed 13 mph (WSW)    
Max Wind Speed 17 mph    
Max Gust Speed 21 mph    
Visibility 2 miles    
Events      
Averages and records for this station are not official NWS values.
T = Trace of Precipitation, MM = Missing Value Source: NWS Daily Summary

Daily Weather History Graph

Daily Weather History Graph

Search for Another Location

Airport or City:

Astronomy

Jun. 26, 2013 Rise Set
Actual Time 5:42 AM AKDT 11:32 PM AKDT
Civil Twilight 4:34 AM AKDT 12:39 AM AKDT
Nautical Twilight 3:09 AM AKDT 2:05 AM AKDT
Astronomical Twilight Sun does not set Sun does not set
Moon 12:34 AM AKDT (6/26) 10:43 AM AKDT (6/26)
Length of Visible Light 20h 05m
Length of Day
17h 50m
Waning Gibbous, 84% of the Moon is Illuminated
Jun 26
Waning Gibbous
Jun 29
Last Quarter
Jul 7
New
Jul 15
First Quarter
Jul 22
Full

Hourly Weather History & Observations

Time (AKDT) Temp. Windchill Dew Point Humidity Pressure Visibility Wind Dir Wind Speed Gust Speed Precip Events Conditions
12:16 AM 44.6 °F 39.2 °F 39.2 °F 81% 29.85 in 1.0 mi WSW 10.4 mph - N/A   Overcast
12:36 AM 44.6 °F 38.8 °F 39.2 °F 81% 29.86 in 1.0 mi WSW 11.5 mph - N/A   Overcast
12:56 AM 44.6 °F 38.8 °F 39.2 °F 81% 29.86 in 1.2 mi WSW 11.5 mph - N/A   Overcast
1:16 AM 44.6 °F 38.4 °F 39.2 °F 81% 29.87 in 1.2 mi WSW 12.7 mph - N/A   Overcast
1:36 AM 44.6 °F 38.8 °F 39.2 °F 81% 29.88 in 1.0 mi WSW 11.5 mph - N/A   Overcast
1:56 AM 44.6 °F 38.4 °F 39.2 °F 81% 29.88 in 1.2 mi WSW 12.7 mph - N/A   Overcast
2:16 AM 44.6 °F 38.1 °F 39.2 °F 81% 29.88 in 1.2 mi WSW 13.8 mph - N/A   Overcast
2:36 AM 44.6 °F 39.2 °F 39.2 °F 81% 29.89 in 0.8 mi WSW 10.4 mph - N/A   Overcast
2:56 AM 44.6 °F 38.1 °F 39.2 °F 81% 29.89 in 0.8 mi WSW 13.8 mph - N/A   Overcast
3:16 AM 42.8 °F 37.0 °F 39.2 °F 87% 29.89 in 0.8 mi WSW 10.4 mph 16.1 mph N/A   Overcast
3:36 AM 42.8 °F 36.2 °F 37.4 °F 81% 29.89 in 1.0 mi WSW 12.7 mph 17.3 mph N/A   Overcast
3:56 AM 42.8 °F 36.2 °F 39.2 °F 87% 29.90 in 1.0 mi WSW 12.7 mph - N/A   Overcast
4:16 AM 42.8 °F 36.2 °F 37.4 °F 81% 29.89 in 1.2 mi WSW 12.7 mph - N/A   Overcast
4:36 AM 42.8 °F 35.8 °F 37.4 °F 81% 29.89 in 2.0 mi WSW 13.8 mph - N/A   Overcast
4:56 AM 42.8 °F 37.0 °F 37.4 °F 81% 29.90 in 2.5 mi WSW 10.4 mph 16.1 mph N/A   Overcast
5:16 AM 42.8 °F 36.6 °F 37.4 °F 81% 29.90 in 3.0 mi WSW 11.5 mph - N/A   Overcast
5:36 AM 42.8 °F 37.0 °F 37.4 °F 81% 29.90 in 4.0 mi WSW 10.4 mph - N/A   Overcast
5:56 AM 42.8 °F 37.0 °F 37.4 °F 81% 29.90 in 1.8 mi WSW 10.4 mph - N/A   Overcast
6:16 AM 42.8 °F 36.6 °F 37.4 °F 81% 29.90 in 1.5 mi WSW 11.5 mph - N/A   Overcast
6:36 AM 42.8 °F 36.6 °F 37.4 °F 81% 29.90 in 0.8 mi WSW 11.5 mph - N/A   Overcast
6:56 AM 42.8 °F 35.8 °F 37.4 °F 81% 29.91 in 1.0 mi WSW 13.8 mph 17.3 mph N/A   Overcast
7:16 AM 42.8 °F 36.2 °F 37.4 °F 81% 29.92 in 1.0 mi WSW 12.7 mph - N/A   Overcast
7:36 AM 42.8 °F 36.2 °F 37.4 °F 81% 29.92 in 1.5 mi WSW 12.7 mph - N/A   Overcast
7:56 AM 42.8 °F 36.2 °F 37.4 °F 81% 29.92 in 1.5 mi WSW 12.7 mph - N/A   Overcast
8:16 AM 42.8 °F 36.2 °F 37.4 °F 81% 29.93 in 1.0 mi WSW 12.7 mph - N/A   Overcast
8:36 AM 42.8 °F 36.2 °F 37.4 °F 81% 29.93 in 1.5 mi WSW 12.7 mph - N/A   Overcast
8:56 AM 42.8 °F 36.6 °F 37.4 °F 81% 29.93 in 1.2 mi WSW 11.5 mph - N/A   Overcast
9:16 AM 42.8 °F 36.2 °F 37.4 °F 81% 29.93 in 1.0 mi WSW 12.7 mph - N/A   Overcast
9:36 AM 42.8 °F 35.4 °F 37.4 °F 81% 29.94 in 1.5 mi WSW 15.0 mph - N/A   Overcast
9:56 AM 42.8 °F 35.8 °F 37.4 °F 81% 29.94 in 2.0 mi WSW 13.8 mph - N/A   Overcast
10:16 AM 42.8 °F 36.2 °F 37.4 °F 81% 29.94 in 1.5 mi WSW 12.7 mph - N/A   Overcast
10:36 AM 42.8 °F 36.2 °F 37.4 °F 81% 29.94 in 1.0 mi WSW 12.7 mph - N/A   Overcast
10:56 AM 42.8 °F 35.8 °F 37.4 °F 81% 29.95 in 0.8 mi West 13.8 mph 18.4 mph N/A   Overcast
11:16 AM 42.8 °F 35.8 °F 37.4 °F 81% 29.96 in 0.8 mi WSW 13.8 mph - N/A   Overcast
11:36 AM 42.8 °F 35.4 °F 37.4 °F 81% 29.96 in 0.8 mi WSW 15.0 mph - N/A   Overcast
11:56 AM 42.8 °F 35.4 °F 37.4 °F 81% 29.97 in 0.8 mi West 15.0 mph 19.6 mph N/A   Overcast
12:16 PM 42.8 °F 35.1 °F 37.4 °F 81% 29.97 in 0.8 mi WSW 16.1 mph - N/A   Overcast
12:36 PM 42.8 °F 35.1 °F 37.4 °F 81% 29.97 in 0.8 mi West 16.1 mph 20.7 mph N/A   Overcast
12:56 PM 42.8 °F 35.4 °F 37.4 °F 81% 29.98 in 0.5 mi WSW 15.0 mph - N/A   Overcast
1:16 PM 42.8 °F 35.4 °F 37.4 °F 81% 29.98 in 0.5 mi West 15.0 mph - N/A   Overcast
1:36 PM 42.8 °F 35.4 °F 37.4 °F 81% 29.99 in 1.0 mi West 15.0 mph 18.4 mph N/A   Overcast
1:56 PM 42.8 °F 36.2 °F 37.4 °F 81% 29.99 in 0.5 mi WSW 12.7 mph - N/A   Overcast
2:16 PM 42.8 °F 35.1 °F 37.4 °F 81% 29.99 in 0.5 mi WSW 16.1 mph - N/A   Overcast
2:36 PM 42.8 °F 35.4 °F 37.4 °F 81% 29.99 in 1.0 mi WSW 15.0 mph - N/A   Overcast
2:56 PM 42.8 °F 35.8 °F 37.4 °F 81% 30.00 in 1.5 mi WSW 13.8 mph - N/A   Overcast
3:16 PM 42.8 °F 35.4 °F 37.4 °F 81% 29.99 in 1.0 mi WSW 15.0 mph - N/A   Overcast
3:36 PM 42.8 °F 35.8 °F 37.4 °F 81% 30.00 in 0.8 mi WSW 13.8 mph - N/A   Overcast
3:56 PM 42.8 °F 35.1 °F 37.4 °F 81% 30.00 in 1.2 mi WSW 16.1 mph - N/A   Overcast
4:16 PM 42.8 °F 35.8 °F 37.4 °F 81% 30.00 in 1.8 mi WSW 13.8 mph 19.6 mph N/A   Overcast
4:36 PM 42.8 °F 34.8 °F 37.4 °F 81% 30.00 in 0.8 mi WSW 17.3 mph - N/A   Overcast
4:56 PM 42.8 °F 35.4 °F 37.4 °F 81% 30.00 in 0.5 mi West 15.0 mph 20.7 mph N/A   Overcast
5:16 PM 42.8 °F 36.2 °F 37.4 °F 81% 30.01 in 3.0 mi West 12.7 mph - N/A   Overcast
5:36 PM 42.8 °F 36.2 °F 37.4 °F 81% 30.02 in 5.0 mi West 12.7 mph - N/A   Overcast
5:56 PM 42.8 °F 35.4 °F 37.4 °F 81% 30.02 in 5.0 mi West 15.0 mph 19.6 mph N/A   Overcast
6:16 PM 42.8 °F 35.4 °F 37.4 °F 81% 30.02 in 1.5 mi WSW 15.0 mph 18.4 mph N/A   Overcast
6:36 PM 42.8 °F 35.1 °F 37.4 °F 81% 30.02 in 10.0 mi WSW 16.1 mph - N/A   Overcast
6:56 PM 42.8 °F 35.8 °F 37.4 °F 81% 30.03 in 8.0 mi WSW 13.8 mph - N/A   Overcast
7:16 PM 42.8 °F 36.6 °F 37.4 °F 81% 30.03 in 6.0 mi WSW 11.5 mph - N/A   Overcast
7:36 PM 42.8 °F 36.2 °F 37.4 °F 81% 30.02 in 5.0 mi WSW 12.7 mph - N/A   Overcast
7:56 PM 42.8 °F 36.2 °F 37.4 °F 81% 30.02 in 10.0 mi WSW 12.7 mph 17.3 mph N/A   Overcast
8:16 PM 42.8 °F 35.4 °F 37.4 °F 81% 30.03 in 10.0 mi West 15.0 mph - N/A   Overcast
8:36 PM 42.8 °F 36.2 °F 37.4 °F 81% 30.03 in 10.0 mi WSW 12.7 mph 17.3 mph N/A   Overcast
8:56 PM 42.8 °F 35.8 °F 35.6 °F 76% 30.03 in 10.0 mi WSW 13.8 mph - N/A   Overcast
9:16 PM 42.8 °F 36.2 °F 37.4 °F 81% 30.03 in 4.0 mi WSW 12.7 mph 18.4 mph N/A   Overcast
9:36 PM 42.8 °F 36.2 °F 37.4 °F 81% 30.03 in 5.0 mi WSW 12.7 mph - N/A   Overcast
9:56 PM 42.8 °F 35.8 °F 35.6 °F 76% 30.03 in 7.0 mi WSW 13.8 mph 18.4 mph N/A   Overcast
10:16 PM 41.0 °F 34.3 °F 35.6 °F 81% 30.04 in 5.0 mi WSW 11.5 mph 18.4 mph N/A   Overcast
10:36 PM 41.0 °F 33.5 °F 35.6 °F 81% 30.04 in 1.8 mi WSW 13.8 mph - N/A   Overcast
10:56 PM 41.0 °F 33.9 °F 35.6 °F 81% 30.05 in 1.8 mi WSW 12.7 mph - N/A   Overcast
11:16 PM 41.0 °F 34.3 °F 35.6 °F 81% 30.06 in 2.0 mi WSW 11.5 mph - N/A   Overcast
11:36 PM 41.0 °F 33.9 °F 35.6 °F 81% 30.07 in 1.2 mi WSW 12.7 mph - N/A   Overcast
11:56 PM 41.0 °F 33.5 °F 35.6 °F 81% 30.07 in 2.5 mi WSW 13.8 mph - N/A   Overcast